Left ArrowRight Arrow

31.31129, -92.44514

Hourly Observations for October 20, 2022

Temp ( °F °C ) Dew Point ( °F °C ) Humidity (%) Winds ( mph kmh ) Pressure ( in mb ) Visibility ( mi km ) Precip ( " mm )
12:53 am 00:53 Clear 40 4.4 34 1.1 79 79 Calm 30.19 1022 10 16 0.00 0.00
1:53 am 01:53 Clear 39 3.9 33 0.6 79 79 Calm 30.17 1022 10 16 0.00 0.00
2:53 am 02:53 Clear 37 2.8 30 -1.1 75 75 Calm 30.17 1022 10 16 0.00 0.00
3:53 am 03:53 Clear 38 3.3 31 -0.6 76 76 Calm 30.15 1021 10 16 0.00 0.00
4:53 am 04:53 Clear 38 3.3 33 0.6 82 82 Calm 30.16 1021 10 16 0.00 0.00
5:53 am 05:53 Clear 38 3.3 33 0.6 82 82 Calm 30.16 1021 10 16 0.00 0.00
6:53 am 06:53 Clear 39 3.9 33 0.6 79 79 Calm 30.16 1021 10 16 0.00 0.00
7:53 am 07:53 Sunny 39 3.9 34 1.1 82 82 SSE 5 7 30.15 1021 10 16 0.00 0.00
8:53 am 08:53 Sunny 49 9.4 38 3.3 66 66 ESE 5 7 30.16 1022 10 16 0.00 0.00
9:53 am 09:53 Sunny 57 13.9 37 2.8 47 47 S 3 6 30.16 1021 10 16 0.00 0.00
10:53 am 10:53 Sunny 65 18.3 38 3.3 37 37 S 6 9 30.14 1021 10 16 0.00 0.00
11:53 am 11:53 Sunny N/A N/A N/A undefined N/A 30.11 1020 N/A 0.00 0.00
12:53 pm 12:53 Sunny N/A N/A N/A S 8 13 30.09 1019 10 16 0.00 0.00
1:53 pm 13:53 Sunny 76 24.4 38 3.3 25 25 SW 9 15 30.04 1017 10 16 0.00 0.00
2:53 pm 14:53 Sunny 79 26.1 40 4.4 25 25 SSW 12 19 30.00 1016 10 16 0.00 0.00
3:53 pm 15:53 Sunny 78 25.6 41 5 27 27 SW 9 15 29.98 1015 10 16 0.00 0.00
4:53 pm 16:53 Sunny 79 26.1 42 5.6 27 27 SW 10 17 29.97 1015 10 16 0.00 0.00
5:53 pm 17:53 Sunny 77 25 43 6.1 30 30 SSW 9 15 29.96 1014 10 16 0.00 0.00
6:53 pm 18:53 Clear 69 20.6 45 7.2 42 42 S 5 7 29.96 1015 10 16 0.00 0.00
7:53 pm 19:53 Clear 68 20 46 7.8 45 45 SSW 9 15 29.98 1015 10 16 0.00 0.00
8:53 pm 20:53 Clear 67 19.4 47 8.3 49 49 S 9 15 30.00 1016 10 16 0.00 0.00
9:53 pm 21:53 Clear 66 18.9 51 10.6 59 59 S 9 15 30.01 1016 10 16 0.00 0.00
10:53 pm 22:53 Clear 65 18.3 52 11.1 63 63 S 7 11 30.02 1017 10 16 0.00 0.00
11:53 pm 23:53 Clear 59 15 51 10.6 75 75 SE 6 9 30.01 1016 10 16 0.00 0.00

Powered by Vaisala Xweather